STARLINK-4556 (53578 NORAD) Tracking and Keplerian Element Data

This shows tracking and keplerian element data for the satellite.

Feedback or suggestion? Click here.




ElementValue
Catalog53578
NameSTARLINK-4556
Epoch Orbit1461
Epoch Day325.25001157
Epoch Year2022
RAAN60.6887
Inclination53.2174
Eccentricity0.0001677
Argument of Perigee47.9305
Mean Anonmoly213.4009
Mean Motion15.08813826
Decay Rate0.00036634
L11 53578U 22101BD 22325.25001157 .00036634 00000+0 23096-2 0 9992
L22 53578 53.2174 60.6887 0001677 47.9305 213.4009 15.08813826 14619



Live tracking and technical data element details for STARLINK-4556 (NORAD 53578). STARLINK-4556 can be tracked NOW for your location showing map with azimuth and elevation plus other details from your city location.







IsCatalogInMostPopularTable: catalog: 53578, numindb: 5
Update: records affected: 1



GetName: 53578 STARLINK-4556

Hit Count: updated at: Thu, 08 Dec 2022 19:34:20 GMT